| time (UTC) | temp F | wind direction | speed knots | gust knots | rain 1hr in | rain 24hr in | rain mn in | humidity % | barometer mb |
| 20260507010104 | 50 | 329 | 0.0 | 0.0 | 0.00 | 0.65 | 0.30 | 69 | 1013.9 |
| 20260507004546 | 51 | 329 | 0.0 | 1.7 | 0.00 | 0.86 | 0.30 | 65 | 1013.7 |
| 20260507003045 | 51 | 329 | 0.9 | 3.5 | 0.00 | 0.86 | 0.30 | 63 | 1013.6 |
| 20260507001554 | 51 | 329 | 0.9 | 2.6 | 0.00 | 0.86 | 0.30 | 61 | 1013.4 |
| 20260507000044 | 51 | 329 | 0.9 | 2.6 | 0.00 | 0.86 | 0.30 | 61 | 1013.4 |
| 20260506234543 | 52 | 335 | 0.9 | 4.3 | 0.00 | 0.97 | 0.30 | 62 | 1013.4 |
| 20260506233052 | 52 | 329 | 1.7 | 4.3 | 0.00 | 0.97 | 0.30 | 57 | 1013.4 |
| 20260506231543 | 52 | 355 | 1.7 | 4.3 | 0.00 | 0.97 | 0.30 | 56 | 1013.6 |
| 20260506230045 | 52 | 360 | 3.5 | 8.7 | 0.00 | 0.97 | 0.30 | 54 | 1013.7 |
| 20260506224542 | 53 | 326 | 2.6 | 8.7 | 0.00 | 1.00 | 0.30 | 55 | 1013.9 |
| 20260506223043 | 53 | 17 | 3.5 | 7.0 | 0.00 | 1.00 | 0.30 | 57 | 1013.7 |
| 20260506221544 | 53 | 337 | 3.5 | 7.8 | 0.00 | 1.00 | 0.30 | 57 | 1013.6 |
| 20260506220046 | 53 | 334 | 2.6 | 5.2 | 0.00 | 1.00 | 0.30 | 59 | 1013.5 |
| 20260506214534 | 53 | 346 | 2.6 | 8.7 | 0.00 | 1.14 | 0.30 | 59 | 1013.2 |
| 20260506213035 | 53 | 355 | 3.5 | 8.7 | 0.00 | 1.14 | 0.30 | 57 | 1013.0 |
| 20260506211537 | 53 | 355 | 3.5 | 7.8 | 0.00 | 1.14 | 0.30 | 57 | 1013.0 |
| 20260506210031 | 53 | 334 | 3.5 | 7.0 | 0.00 | 1.14 | 0.30 | 57 | 1013.0 |
| 20260506204530 | 54 | 340 | 4.3 | 8.7 | 0.00 | 1.23 | 0.30 | 55 | 1012.8 |
| 20260506203029 | 54 | 341 | 4.3 | 7.8 | 0.00 | 1.23 | 0.30 | 56 | 1012.6 |
| 20260506201529 | 54 | 324 | 4.3 | 8.7 | 0.00 | 1.23 | 0.30 | 55 | 1012.6 |
| 20260506200027 | 53 | 311 | 3.5 | 7.0 | 0.00 | 1.23 | 0.30 | 57 | 1012.6 |
| 20260506194530 | 53 | 334 | 3.5 | 8.7 | 0.00 | 1.23 | 0.30 | 56 | 1012.9 |
| 20260506193031 | 54 | 321 | 1.7 | 7.8 | 0.00 | 1.23 | 0.30 | 58 | 1012.9 |
| 20260506191526 | 54 | 355 | 2.6 | 8.7 | 0.00 | 1.23 | 0.30 | 60 | 1012.7 |
| 20260506190025 | 54 | 321 | 3.5 | 9.6 | 0.00 | 1.23 | 0.30 | 58 | 1012.5 |
| 20260506184526 | 54 | 303 | 2.6 | 9.6 | 0.00 | 1.23 | 0.30 | 59 | 1012.4 |
| 20260506183023 | 54 | 313 | 4.3 | 11.3 | 0.00 | 1.23 | 0.30 | 59 | 1012.5 |
| 20260506181522 | 55 | 5 | 6.1 | 10.4 | 0.00 | 1.23 | 0.30 | 61 | 1012.7 |
| 20260506180021 | 55 | 350 | 5.2 | 9.6 | 0.00 | 1.23 | 0.30 | 60 | 1012.6 |
| 20260506174519 | 56 | 27 | 4.3 | 10.4 | 0.00 | 1.23 | 0.30 | 59 | 1012.5 |
| 20260506173018 | 55 | 340 | 7.0 | 11.3 | 0.00 | 1.23 | 0.30 | 61 | 1012.6 |
| 20260506171520 | 55 | 334 | 3.5 | 9.6 | 0.00 | 1.23 | 0.30 | 63 | 1012.5 |
| 20260506170015 | 55 | 10 | 6.1 | 8.7 | 0.00 | 1.23 | 0.30 | 70 | 1012.4 |
| 20260506164511 | 54 | 5 | 6.1 | 10.4 | 0.00 | 1.23 | 0.30 | 67 | 1012.5 |
| 20260506163009 | 54 | 15 | 5.2 | 10.4 | 0.00 | 1.23 | 0.30 | 66 | 1012.3 |
| 20260506161506 | 53 | 30 | 3.5 | 11.3 | 0.00 | 1.23 | 0.30 | 69 | 1012.5 |
| 20260506160003 | 53 | 348 | 5.2 | 9.6 | 0.00 | 1.23 | 0.30 | 74 | 1012.4 |
| 20260506154601 | 52 | 360 | 2.6 | 7.8 | 0.00 | 1.23 | 0.30 | 72 | 1012.3 |
| 20260506153055 | 51 | 40 | 6.1 | 10.4 | 0.00 | 1.23 | 0.30 | 74 | 1011.9 |
| 20260506151552 | 50 | 296 | 4.3 | 9.6 | 0.00 | 1.23 | 0.30 | 73 | 1011.8 |
| 20260506150058 | 50 | 13 | 5.2 | 9.6 | 0.00 | 1.23 | 0.30 | 77 | 1011.9 |
| 20260506144601 | 49 | 341 | 4.3 | 10.4 | 0.00 | 1.23 | 0.30 | 76 | 1011.7 |
| 20260506143051 | 49 | 355 | 4.3 | 8.7 | 0.00 | 1.23 | 0.30 | 78 | 1011.6 |
| 20260506141541 | 48 | 319 | 6.1 | 10.4 | 0.00 | 1.23 | 0.30 | 77 | 1011.2 |
| 20260506140054 | 48 | 9 | 4.3 | 10.4 | 0.00 | 1.23 | 0.30 | 80 | 1011.1 |
| 20260506134536 | 47 | 38 | 5.2 | 9.6 | 0.00 | 1.23 | 0.30 | 81 | 1010.9 |
| 20260506133034 | 46 | 5 | 5.2 | 9.6 | 0.00 | 1.23 | 0.30 | 83 | 1010.9 |
| 20260506131541 | 46 | 5 | 3.5 | 7.8 | 0.00 | 1.23 | 0.30 | 85 | 1010.9 |
| 20260506130031 | 45 | 19 | 3.5 | 7.8 | 0.00 | 1.23 | 0.30 | 87 | 1010.9 |
| 20260506124528 | 45 | 355 | 3.5 | 5.2 | 0.00 | 1.23 | 0.30 | 88 | 1010.7 |
| 20260506123036 | 44 | 17 | 3.5 | 5.2 | 0.00 | 1.23 | 0.30 | 88 | 1010.3 |
| 20260506121524 | 44 | 355 | 3.5 | 7.8 | 0.00 | 1.23 | 0.30 | 88 | 1010.1 |
| 20260506120029 | 44 | 355 | 4.3 | 8.7 | 0.00 | 1.23 | 0.30 | 89 | 1009.8 |
| 20260506114521 | 44 | 355 | 4.3 | 7.0 | 0.00 | 1.23 | 0.30 | 89 | 1009.7 |
| 20260506113017 | 44 | 13 | 5.2 | 8.7 | 0.00 | 1.23 | 0.30 | 90 | 1009.1 |
| 20260506111516 | 44 | 17 | 5.2 | 10.4 | 0.00 | 1.23 | 0.30 | 91 | 1008.6 |
| 20260506110014 | 44 | 36 | 4.3 | 9.6 | 0.00 | 1.23 | 0.30 | 93 | 1008.6 |
| 20260506104522 | 44 | 336 | 4.3 | 8.7 | 0.00 | 1.23 | 0.30 | 94 | 1009.1 |
| 20260506103012 | 45 | 17 | 3.5 | 7.8 | 0.00 | 1.23 | 0.30 | 95 | 1008.3 |
| 20260506101509 | 45 | 21 | 6.1 | 11.3 | 0.00 | 1.23 | 0.30 | 95 | 1008.5 |
| 20260506100016 | 45 | 11 | 5.2 | 10.4 | 0.00 | 1.23 | 0.30 | 96 | 1008.1 |
| 20260506094506 | 45 | 28 | 2.6 | 7.0 | 0.01 | 1.23 | 0.30 | 95 | 1007.8 |
| 20260506093004 | 45 | 36 | 3.5 | 7.0 | 0.02 | 1.23 | 0.30 | 95 | 1007.2 |
| 20260506091503 | 45 | 51 | 2.6 | 8.7 | 0.03 | 1.23 | 0.30 | 96 | 1007.1 |
| 20260506090002 | 45 | 18 | 5.2 | 9.6 | 0.06 | 1.23 | 0.30 | 96 | 1007.3 |
| 20260506084602 | 45 | 360 | 3.5 | 8.7 | 0.05 | 1.22 | 0.28 | 96 | 1007.7 |
| 20260506083101 | 45 | 360 | 3.5 | 9.6 | 0.04 | 1.21 | 0.28 | 96 | 1007.9 |
| 20260506081608 | 45 | 360 | 6.1 | 13.0 | 0.04 | 1.20 | 0.27 | 95 | 1007.7 |
| 20260506073053 | 45 | 11 | 6.1 | 11.3 | 0.07 | 1.17 | 0.24 | 96 | 1007.1 |
| 20260506071550 | 45 | 26 | 4.3 | 12.2 | 0.07 | 1.15 | 0.23 | 96 | 1007.3 |
| 20260506061548 | 45 | 22 | 5.2 | 10.4 | 0.07 | 1.08 | 0.15 | 96 | 1007.1 |
| 20260506044545 | 47 | 355 | 7.0 | 11.3 | 0.03 | 0.96 | 0.03 | 96 | 1007.7 |
| 20260506043030 | 47 | 12 | 2.6 | 7.0 | 0.01 | 0.93 | 0.00 | 96 | 1007.4 |
| 20260506041526 | 47 | 34 | 2.6 | 6.1 | 0.03 | 0.93 | 0.00 | 96 | 1007.3 |
| 20260506040023 | 47 | 37 | 3.5 | 5.2 | 0.06 | 0.93 | 0.00 | 96 | 1007.2 |
| 20260506034523 | 47 | 42 | 0.9 | 5.2 | 0.10 | 0.93 | 0.93 | 96 | 1007.3 |
| 20260506033027 | 47 | 38 | 2.6 | 9.6 | 0.12 | 0.92 | 0.92 | 95 | 1007.5 |
| 20260506031538 | 47 | 28 | 5.2 | 9.6 | 0.12 | 0.90 | 0.90 | 95 | 1007.8 |
| 20260506030020 | 47 | 13 | 4.3 | 9.6 | 0.11 | 0.87 | 0.87 | 95 | 1008.0 |
| 20260506024526 | 48 | 5 | 7.8 | 12.2 | 0.10 | 0.83 | 0.83 | 95 | 1008.2 |
| 20260506023014 | 49 | 37 | 5.2 | 9.6 | 0.10 | 0.80 | 0.80 | 96 | 1008.1 |
| 20260506021514 | 49 | 26 | 4.3 | 10.4 | 0.11 | 0.78 | 0.78 | 95 | 1008.0 |
| 20260506020015 | 49 | 355 | 4.3 | 11.3 | 0.17 | 0.76 | 0.76 | 95 | 1007.9 |
| 20260506014506 | 50 | 346 | 4.3 | 12.2 | 0.23 | 0.73 | 0.73 | 95 | 1007.9 |
| 20260506013005 | 50 | 10 | 5.2 | 9.6 | 0.28 | 0.70 | 0.70 | 95 | 1007.4 |
| 20260506011504 | 50 | 360 | 3.5 | 9.6 | 0.27 | 0.66 | 0.66 | 95 | 1007.1 |